DW6927 Weather Reports


Display with metric or nautical units.
time (UTC)temp
F
wind
direction
speed
MPH
gust
MPH
rain 1hr
in
rain 24hr
in
rain mn
in
humidity
%
barometer
mb
20260905234615 77 0 0.0 0.0 0.00 0.00 0.00 84 1013.8
20260905234055 77 0 0.0 0.0 0.00 0.00 0.00 84 1013.7
20260905233554 77 0 0.0 0.0 0.00 0.00 0.00 84 1013.7
20260905233100 77 0 0.0 0.0 0.00 0.00 0.00 84 1013.6
20260905232555 78 0 0.0 0.0 0.00 0.00 0.00 82 1013.5
20260905232055 78 0 0.0 0.0 0.00 0.00 0.00 82 1013.4
20260905231557 78 0 0.0 0.0 0.00 0.00 0.00 82 1013.4
20260905231054 79 0 0.0 0.0 0.00 0.00 0.00 81 1013.5
20260905230555 79 0 0.0 0.0 0.00 0.00 0.00 81 1013.4
20260905230109 79 0 0.0 0.0 0.00 0.00 0.00 82 1013.3
20260905225556 79 0 0.0 0.0 0.00 0.00 0.00 81 1013.4
20260905225054 80 0 0.0 0.0 0.00 0.00 0.00 82 1013.3
20260905224609 80 0 0.0 0.0 0.00 0.00 0.00 82 1013.4
20260905224053 80 0 0.0 0.0 0.00 0.00 0.00 81 1013.3
20260905223554 80 0 0.0 0.0 0.00 0.00 0.00 80 1013.5
20260905223057 80 0 0.0 0.0 0.00 0.00 0.00 80 1013.6
20260905222555 81 0 0.0 0.0 0.00 0.00 0.00 80 1013.7
20260905222055 81 0 0.0 0.0 0.00 0.00 0.00 79 1013.8
20260905221605 81 0 0.0 0.0 0.00 0.00 0.00 80 1013.7
20260905221054 82 0 0.0 0.0 0.00 0.00 0.00 79 1013.5
20260905220554 82 0 0.0 0.0 0.00 0.00 0.00 80 1013.6
20260905220103 82 0 0.0 0.0 0.00 0.00 0.00 79 1013.6
20260905215554 82 0 0.0 0.0 0.00 0.00 0.00 79 1013.5
20260905215049 81 0 0.0 0.0 0.00 0.00 0.00 77 1013.5
20260905214606 81 0 0.0 0.0 0.00 0.00 0.00 80 1013.7
20260905214050 81 0 0.0 0.0 0.00 0.00 0.00 80 1013.5
20260905213550 81 0 0.0 2.0 0.00 0.00 0.00 81 1013.7
20260905213103 81 0 0.0 2.0 0.00 0.00 0.00 81 1013.7
20260905212550 81 0 0.0 2.0 0.00 0.00 0.00 83 1014.0
20260905212050 81 220 0.0 0.0 0.00 0.00 0.00 82 1014.0
20260905211554 81 0 0.0 2.0 0.00 0.00 0.00 81 1014.1
20260905211050 81 0 0.0 2.0 0.00 0.00 0.00 80 1014.1
20260905210549 81 229 0.0 2.0 0.00 0.00 0.00 79 1014.2
20260905210106 82 0 1.0 2.0 0.00 0.00 0.00 78 1014.0
20260905205550 82 0 0.0 1.0 0.00 0.00 0.00 78 1013.9
20260905205053 83 0 0.0 2.0 0.00 0.00 0.00 76 1014.0
20260905204558 84 0 0.0 2.0 0.00 0.00 0.00 74 1014.0
20260905204049 84 228 0.0 1.0 0.00 0.00 0.00 73 1013.7
20260905203553 85 0 0.0 4.0 0.00 0.00 0.00 72 1013.8
20260905203108 86 0 0.0 4.0 0.00 0.00 0.00 70 1013.6
20260905202551 87 148 1.0 5.0 0.00 0.00 0.00 67 1013.6
20260905202051 88 0 1.0 5.0 0.00 0.00 0.00 67 1013.9
20260905201607 89 107 1.0 2.0 0.00 0.00 0.00 65 1014.2
20260905201050 90 0 0.0 3.0 0.00 0.00 0.00 66 1014.2
20260905200550 90 0 0.0 3.0 0.00 0.00 0.00 63 1014.3
20260905200100 90 0 0.0 0.0 0.00 0.00 0.00 64 1014.5
20260905195549 90 0 0.0 3.0 0.00 0.00 0.00 62 1014.3
20260905195049 90 0 0.0 3.0 0.00 0.00 0.00 65 1014.3
20260905194559 89 0 0.0 3.0 0.00 0.00 0.00 60 1014.3
20260905194049 89 0 0.0 2.0 0.00 0.00 0.00 61 1014.1
20260905193551 88 249 0.0 3.0 0.00 0.00 0.00 60 1014.1
20260905193054 88 0 0.0 3.0 0.00 0.00 0.00 67 1014.3
20260905192550 87 0 0.0 5.0 0.00 0.00 0.00 65 1014.3
20260905192050 86 67 0.0 5.0 0.00 0.00 0.00 68 1014.2
20260905191615 86 160 1.0 5.0 0.00 0.00 0.00 67 1014.6
20260905191050 85 92 0.0 4.0 0.00 0.00 0.00 70 1014.7
20260905190554 85 18 0.0 4.0 0.00 0.00 0.00 68 1014.8
20260905190103 85 239 0.0 3.0 0.00 0.00 0.00 71 1014.5
20260905185553 86 0 0.0 2.0 0.00 0.00 0.00 69 1014.9
20260905185049 86 0 0.0 7.0 0.00 0.00 0.00 68 1014.8
20260905184610 86 0 1.0 7.0 0.00 0.00 0.00 69 1014.7
20260905184053 86 188 2.0 7.0 0.00 0.00 0.00 63 1014.7
20260905183554 88 143 2.0 7.0 0.00 0.00 0.00 67 1014.7
20260905183109 89 0 0.0 2.0 0.00 0.00 0.00 75 1014.6
20260905182557 89 0 0.0 2.0 0.00 0.00 0.00 73 1014.6
20260905182058 88 0 1.0 2.0 0.00 0.00 0.00 72 1014.8
20260905181604 89 0 0.0 4.0 0.00 0.00 0.00 72 1014.9
20260905181054 89 0 0.0 4.0 0.00 0.00 0.00 71 1014.8
20260905180554 89 0 1.0 4.0 0.00 0.00 0.00 73 1014.9
20260905175554 90 0 0.0 4.0 0.00 0.00 0.00 70 1015.1
20260905175053 90 0 0.0 2.0 0.00 0.00 0.00 69 1015.0
20260905174602 90 219 0.0 2.0 0.00 0.00 0.00 68 1015.0
20260905174050 90 0 0.0 4.0 0.00 0.00 0.00 70 1015.3
20260905173555 90 251 0.0 4.0 0.00 0.00 0.00 69 1015.4
20260905173113 90 0 1.0 4.0 0.00 0.00 0.00 70 1015.3
20260905172554 90 0 0.0 3.0 0.00 0.00 0.00 70 1015.4
20260905172054 90 246 0.0 2.0 0.00 0.00 0.00 69 1015.4
20260905171605 90 155 0.0 2.0 0.00 0.00 0.00 72 1015.5
20260905171057 90 181 0.0 2.0 0.00 0.00 0.00 74 1015.5
20260905170551 90 0 0.0 2.0 0.00 0.00 0.00 73 1015.6
20260905170101 90 0 0.0 2.0 0.00 0.00 0.00 71 1015.5
20260905165553 89 246 0.0 3.0 0.00 0.00 0.00 71 1015.6
20260905165051 89 20 0.0 3.0 0.00 0.00 0.00 73 1015.6
20260905164600 89 297 0.0 3.0 0.00 0.00 0.00 74 1015.8
20260905164050 89 0 0.0 3.0 0.00 0.00 0.00 76 1015.8
20260905163556 89 0 0.0 2.0 0.00 0.00 0.00 77 1015.9
20260905163107 89 247 0.0 2.0 0.00 0.00 0.00 71 1016.0
20260905162554 89 0 0.0 3.0 0.00 0.00 0.00 78 1016.0
20260905162055 89 122 1.0 3.0 0.00 0.00 0.00 75 1016.1
20260905161604 88 0 0.0 1.0 0.00 0.00 0.00 77 1016.1
20260905161054 88 0 0.0 1.0 0.00 0.00 0.00 78 1016.1
20260905160554 87 0 0.0 3.0 0.00 0.00 0.00 78 1016.2
20260905160100 87 301 0.0 3.0 0.00 0.00 0.00 75 1016.1
20260905155554 87 244 0.0 1.0 0.00 0.00 0.00 76 1016.3
20260905155052 87 0 0.0 1.0 0.00 0.00 0.00 81 1016.3
20260905154557 86 0 0.0 3.0 0.00 0.00 0.00 80 1016.2
20260905154052 85 0 0.0 3.0 0.00 0.00 0.00 81 1016.4
20260905153554 85 0 0.0 0.0 0.00 0.00 0.00 81 1016.5
20260905153113 85 0 0.0 0.0 0.00 0.00 0.00 82 1016.5
20260905152555 85 0 0.0 0.0 0.00 0.00 0.00 82 1016.5
20260905152054 84 0 0.0 0.0 0.00 0.00 0.00 84 1016.6
20260905151604 84 0 0.0 0.0 0.00 0.00 0.00 85 1016.5
20260905151055 83 0 0.0 0.0 0.00 0.00 0.00 87 1016.5
20260905150554 82 0 0.0 0.0 0.00 0.00 0.00 87 1016.6
20260905150104 82 0 0.0 0.0 0.00 0.00 0.00 87 1016.6
20260905145551 82 0 0.0 0.0 0.00 0.00 0.00 90 1016.7
20260905145054 81 0 0.0 0.0 0.00 0.00 0.00 91 1016.8
20260905144611 81 0 0.0 0.0 0.00 0.00 0.00 93 1016.7
20260905144055 80 0 0.0 0.0 0.00 0.00 0.00 95 1016.7
20260905143555 79 0 0.0 0.0 0.00 0.00 0.00 95 1016.8
20260905143108 79 0 0.0 0.0 0.00 0.00 0.00 96 1016.9
20260905142553 78 0 0.0 0.0 0.00 0.00 0.00 97 1016.8
20260905142057 78 0 0.0 0.0 0.00 0.00 0.00 98 1016.6
20260905141614 77 0 0.0 0.0 0.00 0.00 0.00 98 1016.8
20260905141053 77 0 0.0 0.0 0.00 0.00 0.00 98 1016.7
20260905140554 76 0 0.0 0.0 0.00 0.00 0.00 99 1017.0
20260905140104 76 0 0.0 0.0 0.00 0.00 0.00 99 1017.0
20260905135551 75 0 0.0 0.0 0.00 0.00 0.00 99 1017.1
20260905135052 75 0 0.0 0.0 0.00 0.00 0.00 99 1017.3
20260905134615 74 0 0.0 0.0 0.00 0.00 0.00 99 1017.1
20260905134054 74 0 0.0 0.0 0.00 0.00 0.00 99 1017.3
20260905133555 74 0 0.0 0.0 0.00 0.00 0.00 99 1017.3
20260905133102 73 0 0.0 0.0 0.00 0.00 0.00 99 1017.3
20260905132551 72 0 0.0 0.0 0.00 0.00 0.00 99 1017.4
20260905132054 72 0 0.0 0.0 0.00 0.00 0.00 98 1017.1
20260905131606 72 0 0.0 0.0 0.00 0.00 0.00 98 1017.2
20260905131058 72 0 0.0 0.0 0.00 0.00 0.00 98 1017.2
20260905130556 71 0 0.0 0.0 0.00 0.00 0.00 98 1017.2
20260905130101 71 0 0.0 0.0 0.00 0.00 0.00 98 1017.1
20260905125554 71 0 0.0 0.0 0.00 0.00 0.00 98 1017.3
20260905125054 71 0 0.0 0.0 0.00 0.00 0.00 98 1017.1
20260905124558 71 0 0.0 0.0 0.00 0.00 0.00 98 1017.1
20260905124054 71 0 0.0 0.0 0.00 0.00 0.00 98 1017.2
20260905123554 71 0 0.0 0.0 0.00 0.00 0.00 98 1017.2
20260905123106 71 0 0.0 0.0 0.00 0.00 0.00 98 1017.1
20260905122555 70 0 0.0 0.0 0.00 0.00 0.00 98 1017.1
20260905122054 70 0 0.0 0.0 0.00 0.00 0.00 98 1017.0
20260905121559 70 0 0.0 0.0 0.00 0.00 0.00 98 1016.9
20260905121055 70 0 0.0 0.0 0.00 0.00 0.00 98 1016.8
20260905120554 70 0 0.0 0.0 0.00 0.00 0.00 98 1016.8
20260905120106 70 0 0.0 0.0 0.00 0.00 0.00 98 1016.7
20260905115557 70 0 0.0 0.0 0.00 0.00 0.00 98 1016.8
20260905115057 70 0 0.0 0.0 0.00 0.00 0.00 98 1016.7
20260905114637 70 0 0.0 0.0 0.00 0.00 0.00 98 1016.5
20260905114054 70 0 0.0 0.0 0.00 0.00 0.00 98 1016.5
20260905113554 70 0 0.0 0.0 0.00 0.00 0.00 98 1016.5
20260905113104 70 0 0.0 0.0 0.00 0.00 0.00 98 1016.4
20260905112555 70 0 0.0 0.0 0.00 0.00 0.00 98 1016.4
20260905112053 70 0 0.0 0.0 0.00 0.00 0.00 98 1016.2
20260905111558 69 0 0.0 0.0 0.00 0.00 0.00 97 1016.0
20260905111055 69 0 0.0 0.0 0.00 0.00 0.00 97 1016.2
20260905110553 69 0 0.0 0.0 0.00 0.00 0.00 97 1016.0
20260905110104 69 0 0.0 0.0 0.00 0.00 0.00 97 1016.0
20260905105553 69 0 0.0 0.0 0.00 0.00 0.00 97 1015.9
20260905105053 69 0 0.0 0.0 0.00 0.00 0.00 97 1016.0
20260905104604 70 0 0.0 0.0 0.00 0.00 0.00 97 1015.9
20260905104058 70 0 0.0 0.0 0.00 0.00 0.00 97 1016.0
20260905103554 70 0 0.0 0.0 0.00 0.00 0.00 97 1015.9
20260905103106 70 0 0.0 0.0 0.00 0.00 0.00 97 1015.8
20260905102554 70 0 0.0 0.0 0.00 0.00 0.00 97 1015.8
20260905102054 70 0 0.0 0.0 0.00 0.00 0.00 97 1015.7
20260905101606 70 0 0.0 0.0 0.00 0.00 0.00 97 1015.7
20260905101053 70 0 0.0 0.0 0.00 0.00 0.00 97 1015.6
20260905100553 70 0 0.0 0.0 0.00 0.00 0.00 97 1015.6
20260905100114 70 0 0.0 0.0 0.00 0.00 0.00 97 1015.7
20260905095553 70 0 0.0 0.0 0.00 0.00 0.00 97 1015.8
20260905095057 70 0 0.0 0.0 0.00 0.00 0.00 97 1015.8
20260905094625 70 0 0.0 0.0 0.00 0.00 0.00 97 1015.7
20260905094054 70 0 0.0 0.0 0.00 0.00 0.00 97 1015.6
20260905093554 70 0 0.0 0.0 0.00 0.00 0.00 97 1015.7
20260905093101 70 0 0.0 0.0 0.00 0.00 0.00 97 1015.6
20260905092554 70 0 0.0 0.0 0.00 0.00 0.00 97 1015.6
20260905092053 70 0 0.0 0.0 0.00 0.00 0.00 97 1015.6
20260905091614 71 0 0.0 0.0 0.00 0.00 0.00 97 1015.8
20260905091055 71 0 0.0 0.0 0.00 0.00 0.00 97 1015.6
20260905090553 71 0 0.0 0.0 0.00 0.00 0.00 97 1015.8
20260905090104 71 0 0.0 0.0 0.00 0.00 0.00 97 1015.6
20260905085553 71 0 0.0 0.0 0.00 0.00 0.00 97 1015.5
20260905085053 71 0 0.0 0.0 0.00 0.00 0.00 97 1015.7
20260905084602 71 0 0.0 0.0 0.00 0.00 0.00 97 1015.7
20260905084054 71 0 0.0 0.0 0.00 0.00 0.00 97 1015.8
20260905083558 71 0 0.0 0.0 0.00 0.00 0.00 97 1015.6
20260905083103 71 0 0.0 0.0 0.00 0.00 0.00 97 1015.8
20260905082554 71 0 0.0 0.0 0.00 0.00 0.00 97 1015.8
20260905082054 71 0 0.0 0.0 0.00 0.00 0.00 97 1015.7
20260905081605 71 0 0.0 0.0 0.00 0.00 0.00 97 1015.6
20260905081053 71 0 0.0 0.0 0.00 0.00 0.00 97 1015.7
20260905080554 71 0 0.0 0.0 0.00 0.00 0.00 97 1015.8
20260905080105 71 0 0.0 0.0 0.00 0.00 0.00 97 1015.7
20260905075554 71 0 0.0 0.0 0.00 0.00 0.00 97 1015.6
20260905075053 71 0 0.0 0.0 0.00 0.00 0.00 97 1015.8
20260905074604 71 0 0.0 0.0 0.00 0.00 0.00 97 1015.9
20260905074055 71 0 0.0 0.0 0.00 0.00 0.00 97 1015.9
20260905073550 71 0 0.0 0.0 0.00 0.00 0.00 97 1015.7
20260905073111 71 0 0.0 0.0 0.00 0.00 0.00 97 1015.8
20260905072554 71 0 0.0 0.0 0.00 0.00 0.00 97 1015.7
20260905072053 71 0 0.0 0.0 0.00 0.00 0.00 97 1015.9
20260905071607 71 0 0.0 0.0 0.00 0.00 0.00 97 1016.0
20260905071056 71 0 0.0 0.0 0.00 0.00 0.00 97 1016.2
20260905070554 72 0 0.0 0.0 0.00 0.00 0.00 97 1016.0
20260905070058 72 0 0.0 0.0 0.00 0.00 0.00 97 1016.0
20260905065553 72 0 0.0 0.0 0.00 0.00 0.00 96 1016.1
20260905065056 72 0 0.0 0.0 0.00 0.00 0.00 97 1016.2
20260905064614 72 0 0.0 0.0 0.00 0.00 0.00 96 1016.2
20260905064054 72 0 0.0 0.0 0.00 0.00 0.00 96 1016.1
20260905063554 72 0 0.0 0.0 0.00 0.00 0.00 96 1016.1
20260905063130 72 0 0.0 0.0 0.00 0.00 0.00 97 1016.1
20260905062553 72 0 0.0 0.0 0.00 0.00 0.00 97 1016.3
20260905062053 72 0 0.0 0.0 0.00 0.00 0.00 97 1016.2
20260905061615 72 0 0.0 0.0 0.00 0.00 0.00 96 1016.2
20260905061054 72 0 0.0 0.0 0.00 0.00 0.00 96 1016.1
20260905060553 72 0 0.0 0.0 0.00 0.00 0.00 96 1016.2
20260905055553 72 0 0.0 1.0 0.00 0.00 0.00 96 1016.2
20260905055053 72 135 0.0 2.0 0.00 0.00 0.00 96 1016.3
20260905054606 72 0 0.0 2.0 0.00 0.00 0.00 96 1016.4
20260905054053 72 0 0.0 0.0 0.00 0.00 0.00 96 1016.5
20260905053553 73 0 0.0 0.0 0.00 0.00 0.00 96 1016.6
20260905053059 73 0 0.0 0.0 0.00 0.00 0.00 96 1016.8
20260905052549 73 0 0.0 0.0 0.00 0.00 0.00 96 1016.5
20260905052055 73 0 0.0 0.0 0.00 0.00 0.00 96 1016.5
20260905051610 73 0 0.0 0.0 0.00 0.00 0.00 96 1016.4
20260905051055 73 0 0.0 0.0 0.00 0.00 0.00 96 1016.5
20260905050553 73 0 0.0 0.0 0.00 0.00 0.00 96 1016.5
20260905050107 73 0 0.0 0.0 0.00 0.00 0.00 96 1016.4
20260905045553 73 0 0.0 0.0 0.00 0.00 0.00 96 1016.2
20260905045055 73 0 0.0 0.0 0.00 0.00 0.00 96 1016.2
20260905044559 73 0 0.0 0.0 0.00 0.00 0.00 95 1016.2
20260905044057 73 0 0.0 0.0 0.00 0.00 0.00 95 1016.1
20260905043555 73 0 0.0 0.0 0.00 0.00 0.00 96 1016.2
20260905043100 73 0 0.0 0.0 0.00 0.00 0.00 95 1016.4
20260905042553 73 0 0.0 0.0 0.00 0.00 0.00 95 1016.4
20260905042054 73 0 0.0 0.0 0.00 0.00 0.00 95 1016.6
20260905041558 73 0 0.0 0.0 0.00 0.00 0.00 95 1016.6
20260905041054 74 0 0.0 0.0 0.00 0.00 0.00 95 1016.6
20260905040554 74 0 0.0 0.0 0.00 0.00 0.00 95 1016.6
20260905040058 74 0 0.0 0.0 0.00 0.00 0.00 95 1016.6
20260905035552 74 0 0.0 0.0 0.00 0.00 0.00 95 1016.7
20260905035054 74 0 0.0 0.0 0.00 0.00 0.00 95 1016.8
20260905034612 74 0 0.0 0.0 0.00 0.00 0.00 94 1017.0
20260905034049 74 0 0.0 0.0 0.00 0.00 0.00 95 1017.1
20260905033554 74 0 0.0 0.0 0.00 0.00 0.00 94 1017.2
20260905033108 74 0 0.0 0.0 0.00 0.00 0.00 94 1017.2
20260905032625 74 0 0.0 0.0 0.00 0.00 0.00 94 1017.2
20260905032056 74 0 0.0 0.0 0.00 0.00 0.00 94 1017.2
20260905031613 74 0 0.0 0.0 0.00 0.00 0.00 94 1017.4
20260905031053 74 0 0.0 0.0 0.00 0.00 0.00 94 1017.2
20260905030554 74 0 0.0 0.0 0.00 0.00 0.00 94 1017.4
20260905025553 74 0 0.0 0.0 0.00 0.00 0.00 94 1017.3
20260905025056 75 0 0.0 0.0 0.00 0.00 0.00 94 1017.3
20260905024604 75 0 0.0 0.0 0.00 0.00 0.00 94 1017.4
20260905024053 75 0 0.0 0.0 0.00 0.00 0.00 93 1017.4
20260905023553 75 0 0.0 0.0 0.00 0.00 0.00 93 1017.5
20260905023132 75 0 0.0 0.0 0.00 0.00 0.00 93 1017.5
20260905022549 75 0 0.0 0.0 0.00 0.00 0.00 92 1017.6
20260905022052 75 0 0.0 0.0 0.00 0.00 0.00 92 1017.6
20260905021600 75 0 0.0 0.0 0.00 0.00 0.00 92 1017.5
20260905021054 75 0 0.0 0.0 0.00 0.00 0.00 92 1017.6
20260905020556 75 0 0.0 0.0 0.00 0.00 0.00 92 1017.5
20260905020106 75 0 0.0 0.0 0.00 0.00 0.00 92 1017.4
20260905015553 76 0 0.0 0.0 0.00 0.00 0.00 91 1017.4
20260905015053 76 0 0.0 0.0 0.00 0.00 0.00 91 1017.5
20260905014616 76 0 0.0 0.0 0.00 0.00 0.00 91 1017.4
20260905014054 76 0 0.0 0.0 0.00 0.00 0.00 91 1017.4
20260905013556 76 0 0.0 0.0 0.00 0.00 0.00 91 1017.4
20260905013100 76 0 0.0 0.0 0.00 0.00 0.00 91 1017.3
20260905012553 76 0 0.0 0.0 0.00 0.00 0.00 91 1017.4
20260905012054 76 0 0.0 0.0 0.00 0.00 0.00 91 1017.3
20260905011604 76 0 0.0 0.0 0.00 0.00 0.00 91 1017.3
20260905011057 76 0 0.0 0.0 0.00 0.00 0.00 90 1017.5
20260905010554 77 0 0.0 0.0 0.00 0.00 0.00 90 1017.5
20260905010056 77 0 0.0 0.0 0.00 0.00 0.00 90 1017.4
20260905005553 77 0 0.0 0.0 0.00 0.00 0.00 90 1017.1
20260905005054 77 0 0.0 0.0 0.00 0.00 0.00 90 1017.1
20260905004606 77 0 0.0 0.0 0.00 0.00 0.00 90 1017.1
20260905004055 77 0 0.0 0.0 0.00 0.00 0.00 90 1017.1
20260905003555 78 0 0.0 0.0 0.00 0.00 0.00 90 1017.0
20260905003102 78 0 0.0 0.0 0.00 0.00 0.00 90 1016.9
20260905002552 78 0 0.0 0.0 0.00 0.00 0.00 89 1017.1
20260905002054 78 0 0.0 0.0 0.00 0.00 0.00 89 1017.1
20260905001609 78 0 0.0 0.0 0.00 0.00 0.00 89 1017.0
20260905001053 78 0 0.0 0.0 0.00 0.00 0.00 89 1017.1
20260905000552 78 0 0.0 0.0 0.00 0.00 0.00 88 1016.9
20260905000124 79 0 0.0 0.0 0.00 0.00 0.00 88 1016.9
20260904235555 79 0 0.0 0.0 0.00 0.00 0.00 88 1016.9
20260904235054 79 0 0.0 0.0 0.00 0.00 0.00 88 1016.6